Reflectivity
-16 -20 -20 -20 -20 -20 -20 -20 -20 -20 -20 -20 -20 -20 -20 -20 -20 -20 -20 -20 -20 -20 -20 -20 -20 -20 -20 -20 -20 -20 -20 -20 -20 -20 -20 -20 -20 -20 -20 -20 -20 -15 -20
-5 -20 -20 -20 -20 -20 -20 -20 -20 -20 -20 -20 -20 -20 -20 -20 -20 -20 -20 -20 -20 -20 -20 -20 -20 -20 -20 -20 -20 -20 -20 -20 -20 -20 -20 -20 -20 -20 -20 -20 -20 -20 -20
-20 -20 -20 -20 -3 -9 -20 -20 -14 -20 -20 -20 -20 -20 -20 -20 -20 -20 -20 -20 -20 -20 -20 -20 -20 -20 -20 -20 -20 -20 -20 -20 -20 -20 -20 -20 -20 -20 -20 -20 -20 -20 -20
-20 -15 -2 12 8 -20 -20 -20 -20 -20 -20 -20 -20 -20 -20 -20 -20 -20 -20 -20 -20 -20 -20 -20 -20 -20 -20 -20 -20 -20 -20 -20 -20 -20 -20 -20 -20 -20 -20 -20 -20 -20 -20
26 -17 5 14 -18 -20 -20 -7 -20 15 -20 -20 -20 -20 -20 -20 -20 -20 -20 -20 -20 -20 -20 -20 -20 -20 -20 -20 -20 -20 -20 -20 -20 -20 -20 -20 -20 -20 -20 -20 -20 -20 -20
-19 28 29 19 -3 -1 -3 -19 -19 -20 -20 -20 -20 -20 -20 -20 -20 -20 -20 -20 -20 -20 -20 -20 -20 -20 -20 -20 -20 -20 -20 -20 -20 -20 -20 -20 -20 -20 -20 -20 -20 -20 -20
33 35 22 29 25 11 -20 -20 -20 -20 -20 -20 -20 -20 -20 -20 -20 -20 -20 -20 -20 -20 -20 -20 -20 -20 -20 -20 -20 -20 -20 -20 -20 -20 -20 -20 -20 -20 -13 -20 -20 -20 -20
39 43 28 33 25 -12 -20 3 -7 -19 -20 -20 -20 -20 -20 -20 -20 -20 -20 -20 -20 -20 -20 -20 -20 -20 -20 -20 -20 -20 -20 -20 -20 -20 -20 -20 -20 -20 -20 -20 -20 -20 -20
42 39 35 19 3 -7 7 -0 -6 -2 -2 -13 -18 -20 -20 -20 -20 -20 -20 -20 -20 -20 -20 -20 -20 -20 -20 -20 -20 -20 -20 -20 -20 -20 -20 -20 -20 -20 -20 -20 -20 -20 -20
45 38 30 10 -3 25 8 5 -3 -12 -20 -20 -20 -20 -20 -20 -20 -20 -20 -20 -20 -20 -20 -20 -20 -20 -20 -20 -20 -20 -20 -20 -20 -20 -20 -20 -20 -20 -20 -20 -20 -20 -20
24 21 15 17 19 11 19 3 -6 -20 -20 -20 -20 -20 -20 -20 -20 -20 -20 -20 -20 -20 -20 -20 -20 -20 -20 -20 -20 -20 -20 -20 -20 -20 -20 -20 -20 -20 -20 -20 -20 -20 -20
4 8 10 9 5 -2 -4 -18 -20 -20 -20 -20 -20 -20 -20 -20 -20 -20 -20 -20 -20 -20 -20 -20 -20 -20 -20 -20 -20 -20 -20 -20 -20 -20 -20 -20 -20 -20 -20 -20 -20 -20 -20
4 -6 0 -5 -19 -20 -20 -20 -20 -20 -20 -20 -20 -20 -20 -20 -20 -20 -20 -20 -20 -20 -20 -20 -20 -20 -20 -20 -20 -20 -20 -20 -20 -20 -20 -20 -20 -20 -20 -20 -20 -20 -20
-20 -19 -20 -20 -20 -20 -20 -20 -20 -20 -20 -20 -20 -20 -20 -20 -20 -20 -20 -19 -18 -19 -20 -20 -20 -20 -20 -20 -20 -20 -20 -20 -20 -20 -20 -20 -20 -20 -20 -20 -20 -20 -20
-20 -20 -20 -20 -20 -20 -20 -20 -20 -20 -20 -20 -20 -20 5 -17 -20 -20 6 -5 24 -14 -20 -20 -20 -20 -20 -20 -20 -20 -20 -20 -20 -20 -20 -20 -20 -20 -20 -20 -20 -20 -20
-20 -20 -20 -20 -20 -20 -20 -20 -20 -20 -20 -2 -1 -20 -20 -20 -20 -20 -20 -20 -20 -20 -20 -20 -20 -20 -20 -20 -20 -20 -19 -20 -20 -20 -20 -20 -20 -20 -20 -20 -20 -20 -20
-20 -20 -20 -20 -20 -20 -20 -20 -20 -20 16 1 -1 -1 -3 -2 -13 -12 -20 -3 18 4 -19 -10 -19 -16 -20 -16 -20 -20 -20 -20 -20 -20 -20 -20 -20 -20 -20 -20 -20 -20 -20
-20 -20 -20 -20 -20 -20 -20 -15 35 -0 -8 -10 0 -20 -20 -18 -12 -20 -20 0 -20 -20 -20 -20 -20 -20 -20 -20 -20 -20 -20 -20 -20 -20 -20 -20 -20 -20 -20 -20 -20 -20 -20
-20 -20 -20 -20 -20 -20 -3 -20 -20 -20 -20 -20 -20 -20 -20 -20 -20 -20 -20 -20 -20 -20 -20 -20 -20 -20 -20 -20 -20 -20 -20 -20 -20 -20 -20 -20 -20 -20 -20 -20 -20 -20 -20
-20 -20 -20 -20 -20 16 -20 -20 -20 -20 -20 -20 -20 -20 -20 -20 -20 -20 -20 -20 -20 -20 -20 -20 -20 -20 -20 -20 -20 -20 -20 -20 -20 -20 -20 -20 -20 -20 -20 -20 -20 -20 -20
-20 -20 -20 -20 -20 -20 -20 -20 -20 -20 -20 -20 -20 -20 -20 -20 -20 -20 -20 -20 -20 -20 -20 -20 -20 -20 -20 -20 -20 -20 -20 -20 -20 -20 -20 -20 -20 -20 -20 -20 -20 -20 -20
-20 -20 -20 -20 -20 -20 -20 -20 -20 -20 -20 -20 -20 -20 -20 -20 -20 -20 -20 -20 -20 -20 -20 -20 -20 -20 -20 -20 -20 -20 -20 -20 -20 -20 -20 -20 -20 -20 -20 -20 -20 -20 -20
-20 -20 -20 -20 -20 -20 -20 -20 -20 -20 -20 -20 -20 -20 -20 -20 -20 -20 -20 -20 -20 -20 -20 -20 -20 -20 -20 -20 -20 -20 -20 -20 -20 -20 -20 -20 -20 -20 -20 -20 -20 -20 -20
-20 -20 -20 -20 -20 -20 -20 -20 -20 -20 -20 -20 -20 -20 -20 -20 -20 -20 -20 -20 -20 -20 -20 -20 -20 -20 -20 -20 -20 -20 -20 -20 -20 -20 -20 -20 -20 -20 -20 -20 -20 -20 -20
-20 -20 -20 -20 -20 -20 -20 -20 -20 -20 -20 -20 -20 -20 -20 -20 -20 -20 -20 -20 -20 -20 -20 -20 -20 -20 -20 -20 -20 -20 -20 -20 -20 -20 -20 -20 -20 -20 -20 -20 -20 -20 -20
-20 -20 -20 -20 -20 -20 -20 -20 -20 -20 -20 -20 -20 -20 -20 -20 -20 -20 -20 -20 -20 -20 -20 -20 -20 -19 -6 -20 -20 -20 -20 -20 -20 -20 -20 -20 -20 -20 -20 -20 -20 -20 -20
Wind_Speed
14 19 15 14 14 13 12 13 13 13 13 13 13 13 13 14 14 14 13 13 13 14 14 13 14 14 14 14 14 11 11 10 9 7 4 1 7 9 9 11 15 14 11
17 20 14 14 15 15 13 13 13 13 13 14 13 13 14 14 14 14 13 13 13 13 13 13 14 14 13 12 12 11 11 9 8 10 9 6 12 13 8 9 11 10 8
18 19 17 13 16 15 13 13 13 14 15 13 14 14 14 14 13 13 13 12 11 12 12 12 13 12 12 11 10 10 10 10 10 10 13 2 14 14 9 6 6 6 6
17 18 17 14 15 14 12 12 13 14 14 13 13 14 14 13 13 12 11 10 10 11 12 12 12 13 12 12 11 11 11 11 11 14 5 10 15 14 9 8 7 7 7
16 16 17 13 15 12 11 12 12 13 13 12 13 13 14 12 11 11 10 10 12 12 12 12 12 12 12 12 12 13 13 14 15 13 10 10 11 13 10 12 10 10 12
16 15 18 13 13 12 11 12 12 14 13 12 12 13 13 11 10 9 10 12 12 12 12 11 11 10 10 10 11 12 14 17 21 11 9 12 11 11 10 9 9 9 10
11 13 17 8 9 10 11 13 13 14 13 12 12 12 12 10 9 10 9 10 11 10 9 9 8 8 9 10 11 12 13 15 13 11 9 15 11 11 10 9 8 9 10
8 12 17 14 8 9 12 13 13 13 13 11 11 10 9 9 8 8 8 8 7 7 7 7 7 8 10 11 12 11 12 15 13 9 8 13 10 10 9 7 7 7 8
11 14 13 14 12 12 12 12 13 12 11 10 9 9 7 7 7 6 6 7 7 7 7 8 9 9 9 8 7 10 12 12 12 8 9 10 10 10 9 8 7 7 8
10 14 13 12 12 11 12 13 12 11 10 9 8 6 5 7 7 6 5 7 6 7 8 8 8 8 8 9 4 7 12 12 11 9 10 8 10 9 9 7 6 7 7
11 11 11 10 10 9 11 10 12 11 9 9 8 6 8 6 6 8 9 4 4 5 6 7 7 8 11 12 7 9 10 9 11 8 9 13 15 11 9 9 9 7 8
14 11 10 10 9 8 9 9 7 7 6 6 5 5 3 3 5 3 1 4 3 4 7 7 8 10 10 9 3 6 8 9 9 9 8 14 13 12 10 9 9 9 10
14 9 9 8 8 7 7 6 5 4 5 5 5 1 6 0 5 3 3 3 1 6 6 4 5 6 9 7 8 8 8 9 8 7 9 12 11 12 10 10 10 10 11
12 10 7 9 7 7 6 5 5 5 4 4 4 4 3 0 1 3 5 8 4 4 5 6 6 6 7 8 7 9 9 8 7 7 7 10 10 9 10 10 11 12 12
14 13 11 10 9 7 7 6 6 5 6 4 4 7 4 2 1 2 3 4 8 7 7 7 8 9 10 10 10 8 9 11 10 7 7 8 9 8 8 10 11 10 11
14 13 12 12 11 10 9 10 6 5 4 3 1 2 5 3 2 3 3 4 6 7 8 9 8 8 9 9 8 8 9 9 9 9 9 1 9 11 8 6 9 11 12
14 15 14 14 13 13 11 8 5 5 2 3 4 4 5 3 4 3 4 5 5 7 8 7 8 8 8 7 10 10 11 12 10 10 10 10 5 8 6 7 8 9 11
15 15 15 12 13 10 8 4 2 3 6 5 6 6 6 5 4 3 4 3 5 4 4 5 5 5 8 10 9 10 10 11 13 13 11 9 7 9 4 7 5 4 7
15 15 15 13 12 9 6 5 5 9 6 5 4 4 5 5 4 2 1 2 5 5 5 6 7 9 8 10 11 11 12 12 12 11 14 14 9 6 5 5 4 8 2
14 14 14 11 10 8 5 5 6 6 5 4 5 6 5 5 5 4 1 3 6 6 7 8 10 10 10 10 12 11 13 11 11 11 8 10 9 9 8 9 10 9 11
14 14 13 11 9 7 6 6 6 6 5 5 7 5 5 5 5 4 6 7 7 8 10 10 9 11 11 11 9 9 11 14 11 11 9 9 11 12 12 10 9 9 10
14 12 13 10 9 6 5 5 4 3 6 6 5 5 5 6 7 7 8 8 10 9 11 11 11 9 10 10 10 9 11 10 11 13 12 11 12 8 10 11 12 12 10
12 12 11 11 10 6 7 5 5 5 5 4 4 3 5 5 8 9 10 9 10 10 10 10 10 10 10 9 11 9 12 11 12 11 13 12 13 10 10 11 13 13 12
13 12 11 11 10 6 3 6 7 7 6 5 4 6 6 7 9 11 12 11 10 9 11 10 8 6 10 9 9 9 12 13 13 14 10 11 11 12 11 10 10 11 13
13 11 12 10 9 8 8 6 5 5 4 3 5 7 8 9 11 11 12 12 11 9 10 10 8 8 7 9 9 9 11 10 11 12 13 12 11 11 10 9 9 10 12
12 11 11 11 10 10 10 9 9 7 5 4 5 5 6 6 7 9 11 11 11 11 10 7 5 6 8 9 8 7 8 10 10 11 12 13 14 12 10 11 10 10 10
Wind_Direction
139 134 125 127 121 113 114 112 111 111 105 100 96 93 86 81 79 78 77 75 72 68 66 64 63 58 54 49 46 39 32 23 3 345 313 172 82 52 37 19 356 40 29
137 140 132 133 124 121 121 122 119 112 106 103 96 87 81 79 78 78 74 71 67 68 64 57 55 53 53 50 47 36 26 15 341 307 288 181 93 66 49 39 22 27 29
143 138 147 139 132 126 135 129 118 112 108 101 94 88 82 79 78 75 71 69 71 65 61 60 58 54 48 44 38 29 12 347 323 302 299 233 83 74 57 32 25 11 39
143 143 145 133 123 132 137 128 120 112 99 95 91 85 81 79 75 73 68 64 60 56 60 58 59 54 43 36 29 19 3 333 313 310 34 352 88 53 37 20 45 36 18
150 154 130 130 129 139 134 120 111 101 95 89 85 80 77 75 73 69 60 56 55 57 57 60 56 47 40 29 24 17 356 328 316 291 49 25 22 50 32 22 58 54 31
144 122 113 137 139 134 133 113 103 90 82 80 80 80 78 76 72 69 62 62 60 56 58 58 48 40 33 23 20 11 353 331 317 26 50 70 45 14 42 42 39 35 29
126 118 122 123 120 126 114 104 92 84 82 81 79 77 79 81 78 74 70 66 61 56 55 51 43 36 30 23 19 7 350 329 320 25 27 61 38 16 34 38 38 35 31
121 135 130 141 151 113 101 90 92 90 87 85 82 82 83 82 78 77 76 64 60 56 40 32 22 16 20 10 8 356 335 320 338 22 353 77 34 15 22 22 11 22 24
200 140 139 148 137 100 105 98 91 92 92 89 86 87 94 95 90 88 81 63 36 23 11 5 2 356 358 346 358 335 310 309 304 344 328 60 47 16 20 13 4 355 359
166 134 134 132 132 133 119 103 98 96 98 103 99 107 141 152 151 156 144 71 26 10 355 352 346 339 317 284 285 295 299 282 331 338 57 49 33 7 356 4 356 342 338
112 117 118 138 121 120 122 129 127 130 136 138 149 164 218 205 159 171 79 55 7 348 331 327 321 298 276 259 231 247 278 6 324 358 56 39 22 359 341 335 338 327 319
117 116 107 106 109 150 132 150 118 137 141 138 123 150 171 22 51 310 183 165 227 270 267 252 264 266 257 353 324 252 355 348 321 333 68 51 19 358 3 357 348 339 346
105 100 117 124 128 154 122 142 127 128 149 135 113 299 82 248 52 7 2 238 291 187 283 272 257 333 350 341 348 344 341 334 333 336 67 68 39 3 12 27 26 19 11
134 125 145 127 121 111 142 124 124 109 117 126 103 190 102 8 74 32 10 354 309 322 335 308 316 325 329 329 347 339 336 328 336 324 89 80 68 21 10 30 41 43 38
136 144 134 125 122 134 110 107 91 90 41 27 15 21 9 55 39 348 10 65 305 306 306 302 314 338 331 329 340 335 335 320 325 313 325 104 96 73 33 16 24 33 40
128 126 133 129 152 143 96 92 104 71 99 32 30 174 186 230 347 334 344 319 316 313 327 338 352 337 336 341 318 331 317 309 307 318 313 313 135 128 115 73 37 22 19
143 140 140 139 119 118 124 119 101 90 70 14 26 24 325 312 17 12 8 319 326 353 329 325 340 327 317 310 319 323 315 316 316 310 307 301 176 134 99 86 54 25 8
143 147 147 141 140 120 70 64 119 117 74 62 58 55 40 49 35 343 282 357 350 333 329 338 301 307 319 325 315 316 317 311 309 305 289 291 296 302 137 120 83 21 2
152 150 154 154 145 126 143 141 110 103 99 113 139 128 89 72 58 342 8 336 310 295 315 309 329 322 319 317 311 317 322 305 304 310 311 303 309 304 328 345 47 338 314
157 159 157 161 151 181 138 122 118 117 125 122 83 73 38 74 25 337 32 348 312 317 322 341 320 317 308 305 311 331 296 318 312 292 294 304 299 322 316 332 316 312 343
159 166 167 164 174 197 155 140 142 149 116 105 85 59 51 27 32 7 340 325 323 324 328 312 303 313 313 315 315 303 315 294 306 313 335 348 332 316 323 320 317 334 324
169 163 177 161 172 160 141 87 34 78 59 78 81 74 52 19 357 333 346 325 332 319 314 308 317 313 304 314 320 319 311 309 301 345 330 316 293 309 312 326 325 318 319
166 170 165 163 147 100 106 139 114 110 153 170 97 59 45 3 338 331 328 322 318 311 313 321 310 318 310 319 312 317 308 313 314 307 313 313 315 318 322 310 316 319 325
161 160 159 139 116 126 157 78 45 40 46 43 12 28 327 339 331 328 322 315 312 311 308 306 310 338 302 310 310 317 319 315 313 311 312 307 314 306 314 303 314 312 316
146 153 135 131 126 126 109 116 107 83 86 55 16 350 345 350 338 334 331 331 321 308 305 304 304 316 313 314 324 323 326 311 310 311 313 312 308 306 313 310 319 306 294
143 140 141 147 131 114 104 97 91 82 71 38 14 354 358 330 335 338 336 323 311 297 293 301 340 318 344 320 305 316 313 316 315 320 314 312 308 303 314 317 305 303 306